Osceola, IA

7:16 PM CST on February 05, 2016 (GMT -0600)
Osceola Municipal

Weather History for KI75 - October, 2012

Change the Weather History Date:

Saturday, October 13, 2012

  Actual Average (KLWD) Record (KLWD)
Temperature  
Mean Temperature 62 °F 54 °F  
Max Temperature 71 °F 65 °F 86 °F (1989)
Min Temperature 52 °F 44 °F 28 °F (2006)
Degree Days  
Heating Degree Days 4 11  
Month to date heating degree days 122  
Since 1 July heating degree days 222  
Cooling Degree Days 0 0  
Month to date cooling degree days 11  
Year to date cooling degree days 944  
Growing Degree Days 12 (Base 50)    
Moisture  
Dew Point 58 °F    
Average Humidity 87    
Maximum Humidity 94    
Minimum Humidity 75    
Precipitation  
Precipitation 1.30 in 0.10 in 1.71 in (2014)
Month to date precipitation 1.01  
Sea Level Pressure  
Sea Level Pressure 29.81 in    
Wind  
Wind Speed 11 mph (SSE)    
Max Wind Speed 20 mph    
Max Gust Speed 25 mph    
Visibility 7 miles    
Events Rain    
T = Trace of Precipitation, MM = Missing Value Source: NWS Daily Summary

Daily Weather History Graph

Daily Weather History Graph

Search for Another Location

Airport or City:

Trip Planner

Search our weather history database for the weather conditions in past years. The results will help you decide how hot, cold, wet, or windy it might be!

Date:

Astronomy

Oct. 13, 2012 Rise Set
Actual Time 7:24 AM CDT 6:36 PM CDT
Civil Twilight 6:56 AM CDT 7:04 PM CDT
Nautical Twilight 6:25 AM CDT 7:35 PM CDT
Astronomical Twilight 5:53 AM CDT 8:07 PM CDT
Moon 5:14 AM CDT (10/13) 5:21 PM CDT (10/13)
Length of Visible Light 12h 07m
Length of Day
11h 11m
Waning Crescent, 5% of the Moon is Illuminated
Oct 13
Waning Crescent
Oct 15
New
Oct 21
First Quarter
Oct 29
Full
Nov 6
Last Quarter

Hourly Weather History & Observations

Time (CDT) Temp. Dew Point Humidity Pressure Visibility Wind Dir Wind Speed Gust Speed Precip Events Conditions
12:55 AM 52.7 °F 46.2 °F 79% 30.02 in 10.0 mi SE 10.4 mph - N/A   Overcast
1:35 AM 54.3 °F 47.5 °F 78% 30.01 in 10.0 mi SSE 11.5 mph - N/A   Overcast
1:55 AM 55.4 °F 48.2 °F 77% 29.99 in 10.0 mi SSE 10.4 mph 19.6 mph N/A   Overcast
2:15 AM 54.7 °F 47.8 °F 78% 29.98 in 10.0 mi SSE 9.2 mph 17.3 mph N/A   Overcast
2:35 AM 54.5 °F 48.2 °F 79% 29.97 in 10.0 mi SSE 8.1 mph - N/A   Overcast
2:55 AM 54.7 °F 48.6 °F 80% 29.95 in 10.0 mi SSE 10.4 mph 16.1 mph N/A   Overcast
3:15 AM 54.7 °F 49.5 °F 83% 29.96 in 7.0 mi South 10.4 mph - 0.01 in Rain Light Rain
3:35 AM 54.9 °F 50.0 °F 84% 29.95 in 10.0 mi SSE 10.4 mph 16.1 mph 0.01 in   Overcast
3:55 AM 55.2 °F 50.2 °F 83% 29.94 in 10.0 mi South 9.2 mph - 0.01 in   Overcast
4:15 AM 55.4 °F 50.5 °F 84% 29.95 in 10.0 mi SSE 8.1 mph - N/A   Overcast
4:35 AM 55.4 °F 50.9 °F 85% 29.94 in 10.0 mi SSE 10.4 mph - N/A Rain Light Rain
4:55 AM 54.7 °F 51.1 °F 88% 29.94 in 5.0 mi SSE 8.1 mph - 0.05 in Rain Rain
5:15 AM 54.3 °F 51.4 °F 90% 29.92 in 2.5 mi ESE 9.2 mph - 0.17 in Rain Heavy Rain
5:55 AM 54.1 °F 52.0 °F 92% 29.90 in 2.0 mi ESE 8.1 mph - 0.41 in Rain Heavy Rain
6:15 AM 54.9 °F 52.9 °F 93% 29.90 in 4.0 mi South 5.8 mph - N/A Rain Light Rain
6:35 AM 57.4 °F 55.6 °F 94% 29.90 in 7.0 mi SSE 13.8 mph 17.3 mph N/A   Overcast
6:55 AM 57.2 °F 55.0 °F 92% 29.93 in 1.5 mi South 8.1 mph 12.7 mph 0.50 in Rain Heavy Rain
7:15 AM 56.8 °F 54.9 °F 93% 29.92 in 4.0 mi SSE 9.2 mph - 0.07 in Rain Light Rain
7:35 AM 56.3 °F 54.5 °F 94% 29.90 in 7.0 mi SE 8.1 mph - 0.10 in Rain Light Rain
7:55 AM 56.5 °F 54.5 °F 93% 29.91 in 7.0 mi SE 8.1 mph - 0.10 in   Overcast
8:55 AM 57.4 °F 55.6 °F 94% 29.89 in 1.5 mi SE 10.4 mph - N/A   Overcast
9:35 AM 58.5 °F 56.7 °F 94% 29.88 in 1.5 mi SE 10.4 mph - N/A   Overcast
9:55 AM 59.2 °F 57.4 °F 94% 29.88 in 1.2 mi SSE 10.4 mph 17.3 mph N/A   Overcast
10:35 AM 60.4 °F 58.6 °F 94% 29.85 in 1.0 mi SSE 9.2 mph - N/A   Overcast
10:55 AM 60.8 °F 59.0 °F 94% 29.84 in 0.8 mi SSE 10.4 mph - N/A   Overcast
11:15 AM 61.7 °F 59.9 °F 94% 29.82 in 1.5 mi SSE 11.5 mph 17.3 mph N/A   Overcast
11:35 AM 62.6 °F 60.8 °F 94% 29.79 in 2.0 mi SSE 12.7 mph - N/A   Overcast
11:55 AM 63.3 °F 61.5 °F 94% 29.81 in 4.0 mi South 11.5 mph 16.1 mph N/A   Overcast
12:35 PM 64.6 °F 61.7 °F 90% 29.79 in 7.0 mi South 16.1 mph 25.3 mph 0.01 in   Overcast
12:55 PM 65.8 °F 62.2 °F 88% 29.79 in 7.0 mi SSW 12.7 mph 19.6 mph 0.01 in   Overcast
1:15 PM 67.1 °F 62.6 °F 85% 29.77 in 7.0 mi South 13.8 mph - N/A   Overcast
1:35 PM 68.0 °F 62.8 °F 83% 29.76 in 10.0 mi SSW 13.8 mph 24.2 mph N/A   Overcast
1:55 PM 69.3 °F 63.3 °F 81% 29.75 in 10.0 mi South 13.8 mph - N/A   Mostly Cloudy
2:15 PM 70.9 °F 63.5 °F 77% 29.75 in 10.0 mi South 13.8 mph - N/A   Mostly Cloudy
2:35 PM 71.1 °F 63.0 °F 75% 29.76 in 10.0 mi South 19.6 mph - N/A   Overcast
2:55 PM 69.8 °F 61.7 °F 75% 29.76 in 10.0 mi South 19.6 mph 25.3 mph N/A   Overcast
3:35 PM 67.5 °F 61.7 °F 82% 29.75 in 10.0 mi South 11.5 mph 17.3 mph N/A   Overcast
3:55 PM 66.9 °F 62.2 °F 85% 29.74 in 7.0 mi South 10.4 mph - N/A   Overcast
4:15 PM 66.4 °F 62.8 °F 88% 29.73 in 4.0 mi South 11.5 mph 19.6 mph N/A   Overcast
4:35 PM 66.9 °F 62.6 °F 86% 29.72 in 10.0 mi South 11.5 mph 17.3 mph N/A   Overcast
4:55 PM 66.7 °F 62.6 °F 86% 29.72 in 5.0 mi South 13.8 mph 17.3 mph N/A   Overcast
5:15 PM 67.1 °F 62.6 °F 85% 29.74 in 7.0 mi South 12.7 mph 16.1 mph N/A   Overcast
5:35 PM 66.2 °F 63.0 °F 89% 29.74 in 1.8 mi South 10.4 mph - N/A Rain Rain
5:55 PM 65.7 °F 63.1 °F 92% 29.74 in 1.8 mi South 8.1 mph - N/A   Drizzle
6:15 PM 65.7 °F 63.1 °F 92% 29.74 in 5.0 mi SSW 4.6 mph - N/A Rain Light Rain
6:35 PM 66.2 °F 63.0 °F 89% 29.72 in 10.0 mi South 9.2 mph - N/A   Overcast
7:35 PM 66.2 °F 62.4 °F 88% 29.72 in 10.0 mi South 13.8 mph - N/A   Overcast
7:55 PM 66.4 °F 62.6 °F 88% 29.71 in 10.0 mi South 12.7 mph 20.7 mph N/A   Overcast
8:35 PM 65.8 °F 62.1 °F 88% 29.69 in 10.0 mi South 13.8 mph 21.9 mph N/A   Overcast
8:55 PM 66.0 °F 62.2 °F 88% 29.69 in 10.0 mi South 13.8 mph 21.9 mph N/A   Overcast
9:15 PM 65.8 °F 62.6 °F 89% 29.69 in 10.0 mi South 12.7 mph 17.3 mph N/A   Overcast
9:35 PM 65.8 °F 62.4 °F 89% 29.68 in 10.0 mi SSE 10.4 mph 20.7 mph N/A   Overcast
9:55 PM 65.8 °F 62.6 °F 89% 29.67 in 10.0 mi SSE 15.0 mph 18.4 mph N/A Rain Rain
10:15 PM 65.7 °F 62.6 °F 90% 29.67 in 10.0 mi SSE 18.4 mph 23.0 mph 0.01 in   Light Drizzle
10:55 PM 65.5 °F 62.6 °F 90% 29.65 in 10.0 mi SSE 10.4 mph 18.4 mph 0.01 in Rain Light Rain
11:15 PM 65.7 °F 62.6 °F 90% 29.65 in 10.0 mi SSE 11.5 mph 16.1 mph N/A   Overcast
11:35 PM 62.4 °F 58.3 °F 86% 29.65 in 2.5 mi North 6.9 mph - 0.20 in Rain Heavy Rain
11:55 PM 59.2 °F 56.3 °F 90% 29.66 in 10.0 mi NW 6.9 mph - 0.21 in Rain Light Rain